User: anonymous   Login
Location: Raven Hill Discovery Center
(45.1336°N, 85.0553°W)
Time: 20:45:08
(UTC-05:00)
Language:

Cosmos 1470 - Orbit

View from above orbital plane
View from above orbital plane
View from above satellite
View from above satellite

Ground track
Ground track

The orbit data is extracted from the following two-line orbital elements,

1 14147U 83061A   15032.18432635  .00006158  00000-0  39485-3 0  1936
2 14147 082.5080 168.8764 0012432 005.9204 354.2169 15.08287456473992
Epoch (UTC): 01 February 2015 04:25:25
Eccentricity: 0.0012432
inclination: 82.5080°
perigee height: 533 km
apogee height: 550 km
right ascension of ascending node: 168.8764°
argument of perigee: 5.9204°
revolutions per day: 15.08287456
mean anomaly at epoch: 354.2169°
orbit number at epoch: 47399

The dashed part of the orbit path shows where the satellite is in the earth's shadow,  

DLR